Regional Weather Roundup
Issued by NWS

Home | Current Version | Previous Version | Graphics & Text | Print | Product List | Glossary On
Versions: 1 2 3 4 5 6 7 8 9 10 11 12 13 14 15 16 17 18 19 20 21 22 23 24 25 26 27 28 29 30 31 32 33 34 35 36 37 38 39 40 41 42 43 44 45 46 47 48 49 50
000
ASUS43 KLSX 192357
RWRMO

WEATHER SUMMARY FOR MISSOURI
NATIONAL WEATHER SERVICE SPRINGFIELD MO
700 PM CDT THU OCT 19 2017

NOTE: "FAIR" INDICATES FEW OR NO CLOUDS BELOW 12,000 FEET WITH NO
       SIGNIFICANT WEATHER AND/OR OBSTRUCTIONS TO VISIBILITY.
       CURRENT SKY AND/OR WEATHER CONDITIONS ARE NOT AVAILABLE FOR
       CHILLICOTHE AND FARMINGTON.

MOZ001>031-035>038-043-044-053-054-200100-
...NORTHERN AND WESTERN MISSOURI...

CITY           SKY/WX    TMP DP  RH WIND       PRES   REMARKS
KANSAS CTY INT PTCLDY    63  52  67 S9        30.05S
6HR MIN TEMP:  63; 6HR MAX TEMP:  79;

LEE`S SUMMIT   CLOUDY    72  54  53 S8        30.07F
6HR MIN TEMP:  72; 6HR MAX TEMP:  80;

ST JOSEPH      CLEAR     67  53  61 S7        30.03S
6HR MIN TEMP:  67; 6HR MAX TEMP:  81;

CHILLICOTHE      N/A     69  54  58 S3        30.08R
6HR MIN TEMP:  69; 6HR MAX TEMP:  78;


$$
MOZ066>068-077>081-088>096-101>105-200100-
...SOUTHWEST MISSOURI...

CITY           SKY/WX    TMP DP  RH WIND       PRES   REMARKS
SPRINGFIELD    PTCLDY    65  49  56 S6        30.12F
6HR MIN TEMP:  65; 6HR MAX TEMP:  80;

JOPLIN         PTCLDY    69  52  54 SE3       30.11S
6HR MIN TEMP:  69; 6HR MAX TEMP:  79;

BRANSON        CLOUDY    70  46  43 SE9       30.16S

$$
MOZ032>034-039>042-045>050-055>058-069>072-200100-
...CENTRAL MISSOURI...

CITY           SKY/WX    TMP DP  RH WIND       PRES   REMARKS
COLUMBIA       NOT AVBL
JEFFERSON CITY CLEAR     69  52  54 CALM      30.11S
6HR MIN TEMP:  68; 6HR MAX TEMP:  80;

ROLLA          CLEAR     66  49  54 SE7       30.14S
6HR MIN TEMP:  65; 6HR MAX TEMP:  79;

SEDALIA        CLEAR     69  54  58 S6        30.11S
6HR MIN TEMP:  69; 6HR MAX TEMP:  80;

WARRENSBURG    PTCLDY    68  52  56 CALM      30.08S

$$
MOZ051-052-059>065-200100-
...EAST CENTRAL MISSOURI...

CITY           SKY/WX    TMP DP  RH WIND       PRES   REMARKS
ST LOUIS INTL  PTCLDY    69  51  52 E5        30.14S
6HR MIN TEMP:  69; 6HR MAX TEMP:  80;


$$
MOZ072>076-082>087-097>100-106>115-200100-
...SOUTH CENTRAL AND SOUTHEAST MISSOURI...

CITY           SKY/WX    TMP DP  RH WIND       PRES   REMARKS
CAPE GIRARDEAU CLEAR     64  48  56 S7        30.18R
6HR MIN TEMP:  64; 6HR MAX TEMP:  78;

POPLAR BLUFF   CLEAR     64  54  69 CALM      30.17R
6HR MIN TEMP:  64; 6HR MAX TEMP:  79;

WEST PLAINS    CLEAR     67  46  47 CALM      30.18R
6HR MIN TEMP:  67; 6HR MAX TEMP:  80;


$$



USA.gov is the U.S. government's official web portal to all federal, state and local government web resources and services.